Location: Chagrin Falls Park
(41.4139°N, 81.3865°W)
Time: 02:58:51
(UTC+00:00)

STARLINK-2691 - Pass Details

Date: 31 July 2021
Orbit: 546 x 548 km, 53.1° (Epoch: 21 September)

Event Time Altitude Azimuth Distance (km) Brightness Sun altitude
Rises 02:05:02 0° 305° (NW) 2,722 9.2 -13.5°
Reaches altitude 10° 02:07:18 10° 301° (WNW) 1,824 7.7 -13.9°
Maximum altitude 02:11:22 55° 223° (SW) 660 4.0 -14.4°
Enters shadow 02:13:36 24° 154° (SSE) 1,151 4.7 -14.8°
